Weather History for Tehachapi, CA

Change the Weather History Date:

Saturday, November 2, 2013

  Actual Average Record
Temperature  
Mean Temperature 50 °F -  
Max Temperature 68 °F 64 °F 68 °F (2013)
Min Temperature 32 °F 37 °F 32 °F (2013)
Degree Days  
Heating Degree Days 15    
Moisture  
Dew Point 26 °F    
Average Humidity 39    
Maximum Humidity 70    
Minimum Humidity 18    
Precipitation  
Precipitation 0.00 in - - ()
Sea Level Pressure  
Sea Level Pressure 30.05 in    
Wind  
Wind Speed 9 mph (WSW)    
Max Wind Speed 17 mph    
Max Gust Speed 21 mph    
Visibility 9 miles    
Events      
Averages and records for this station are not official NWS values.
T = Trace of Precipitation, MM = Missing Value Source: NWS Daily Summary

Daily Weather History Graph

Daily Weather History Graph

Search for Another Location

Airport:

Trip Planner

Search our weather history database for the weather conditions in past years. The results will help you decide how hot, cold, wet, or windy it might be!

Date:

Astronomy

Nov. 02, 2013 Rise Set
Actual Time 7:16 AM PDT 5:57 PM PDT
Civil Twilight 6:49 AM PDT 6:24 PM PDT
Nautical Twilight 6:19 AM PDT 6:54 PM PDT
Astronomical Twilight 5:50 AM PDT 7:23 PM PDT
Moon 6:20 AM PDT (11/2) 5:32 PM PDT (11/2)
Length of Visible Light 11h 34m
Length of Day
10h 41m
Waning Crescent, 1% of the Moon is Illuminated
Nov 2
Waning Crescent
Nov 3
New
Nov 9
First Quarter
Nov 17
Full
Nov 25
Last Quarter

Hourly Weather History & Observations

Time (PDT) Temp. Windchill Dew Point Humidity Pressure Visibility Wind Dir Wind Speed Gust Speed Precip Events Conditions
12:15 AM 50.0 °F - 23.0 °F 35% 30.16 in 10.0 mi East 10.4 mph - N/A   Clear
12:35 AM 50.0 °F - 23.0 °F 35% 30.16 in 10.0 mi East 11.5 mph - N/A   Clear
12:55 AM 50.0 °F - 23.0 °F 35% 30.15 in 10.0 mi East 11.5 mph - N/A   Clear
1:15 AM 46.4 °F 41.5 °F 23.0 °F 40% 30.15 in 10.0 mi ESE 10.4 mph - N/A   Clear
1:35 AM 50.0 °F - 23.0 °F 35% 30.15 in 10.0 mi East 13.8 mph - N/A   Clear
1:55 AM 50.0 °F - 23.0 °F 35% 30.15 in 10.0 mi East 11.5 mph - N/A   Clear
2:15 AM 48.2 °F - 24.8 °F 40% 30.14 in 10.0 mi East 9.2 mph - N/A   Clear
2:35 AM 41.0 °F 35.2 °F 24.8 °F 53% 30.14 in 10.0 mi ESE 9.2 mph - N/A   Clear
2:55 AM 41.0 °F 35.8 °F 24.8 °F 53% 30.13 in 10.0 mi ESE 8.1 mph - N/A   Clear
3:15 AM 44.6 °F 40.2 °F 24.8 °F 46% 30.13 in 10.0 mi ESE 8.1 mph - N/A   Clear
3:35 AM 39.2 °F 32.5 °F 24.8 °F 56% 30.12 in 10.0 mi ESE 10.4 mph - N/A   Clear
3:55 AM 39.2 °F 32.0 °F 24.8 °F 56% 30.12 in 10.0 mi SSE 11.5 mph - N/A   Clear
4:15 AM 39.2 °F 33.0 °F 24.8 °F 56% 30.12 in 10.0 mi SE 9.2 mph - N/A   Clear
4:35 AM 39.2 °F 35.9 °F 23.0 °F 52% 30.12 in 10.0 mi ESE 4.6 mph - N/A   Clear
4:55 AM 39.2 °F 37.0 °F 23.0 °F 52% 30.12 in 10.0 mi East 3.5 mph - N/A   Clear
5:15 AM 39.2 °F - 23.0 °F 52% 30.12 in 10.0 mi Calm Calm - N/A   Clear
5:35 AM 35.6 °F 30.7 °F 23.0 °F 60% 30.11 in 10.0 mi East 5.8 mph - N/A   Clear
5:55 AM 37.4 °F 33.8 °F 24.8 °F 60% 30.10 in 10.0 mi East 4.6 mph - N/A   Clear
6:15 AM 35.6 °F 29.9 °F 23.0 °F 60% 30.10 in 10.0 mi SE 6.9 mph - N/A   Clear
6:35 AM 35.6 °F 32.8 °F 23.0 °F 60% 30.10 in 10.0 mi NE 3.5 mph - N/A   Clear
6:55 AM 35.6 °F - 23.0 °F 60% 30.10 in 10.0 mi Calm Calm - N/A   Clear
7:15 AM 32.0 °F - 23.0 °F 69% 30.11 in 10.0 mi Calm Calm - N/A   Clear
7:35 AM 32.0 °F 27.5 °F 23.0 °F 69% 30.10 in 10.0 mi SE 4.6 mph - N/A   Clear
7:55 AM 33.8 °F - 24.8 °F 70% 30.11 in 8.0 mi Calm Calm - N/A   Clear
8:15 AM 37.4 °F - 24.8 °F 60% 30.10 in 9.0 mi Calm Calm - N/A   Clear
8:35 AM 41.0 °F - 24.8 °F 53% 30.10 in 10.0 mi Calm Calm - N/A   Clear
8:55 AM 46.4 °F 43.5 °F 24.8 °F 43% 30.10 in 9.0 mi ESE 5.8 mph - N/A   Clear
10:15 AM 59.0 °F - 24.8 °F 27% 30.08 in 8.0 mi SSE 5.8 mph - N/A   Clear
10:35 AM 62.6 °F - 23.0 °F 22% 30.08 in 8.0 mi SE 4.6 mph - N/A   Clear
10:55 AM 64.4 °F - 23.0 °F 21% 30.08 in 9.0 mi ESE 4.6 mph - N/A   Clear
11:15 AM 64.4 °F - 19.4 °F 18% 30.07 in 9.0 mi WSW 3.5 mph - N/A   Clear
11:35 AM 66.2 °F - 21.2 °F 18% 30.06 in 9.0 mi SSE 4.6 mph - N/A   Clear
11:55 AM 66.2 °F - 23.0 °F 19% 30.06 in 10.0 mi ESE 5.8 mph - N/A   Clear
12:15 PM 66.2 °F - 24.8 °F 21% 30.05 in 9.0 mi South 8.1 mph - N/A   Clear
12:35 PM 66.2 °F - 24.8 °F 21% 30.04 in 5.0 mi ESE 8.1 mph - N/A   Haze
12:55 PM 68.0 °F - 24.8 °F 20% 30.03 in 9.0 mi ESE 6.9 mph - N/A   Clear
1:15 PM 68.0 °F - 24.8 °F 20% 30.02 in 10.0 mi South 3.5 mph - N/A   Clear
1:35 PM 68.0 °F - 23.0 °F 18% 30.01 in 10.0 mi NW 12.7 mph 17.3 mph N/A   Clear
1:55 PM 68.0 °F - 23.0 °F 18% 30.01 in 8.0 mi NW 15.0 mph - N/A   Clear
2:15 PM 68.0 °F - 23.0 °F 18% 30.00 in 10.0 mi NNW 13.8 mph - N/A   Clear
2:35 PM 68.0 °F - 23.0 °F 18% 29.99 in 9.0 mi NW 15.0 mph 18.4 mph N/A   Clear
2:55 PM 68.0 °F - 24.8 °F 20% 29.99 in 10.0 mi NW 15.0 mph - N/A   Clear
3:15 PM 68.0 °F - 24.8 °F 20% 29.99 in 10.0 mi NW 17.3 mph - N/A   Clear
3:35 PM 66.2 °F - 26.6 °F 23% 29.99 in 10.0 mi NW 11.5 mph - N/A   Clear
3:55 PM 66.2 °F - 26.6 °F 23% 29.98 in 10.0 mi WNW 10.4 mph 18.4 mph N/A   Clear
4:15 PM 66.2 °F - 26.6 °F 23% 29.98 in 10.0 mi West 11.5 mph 20.7 mph N/A   Clear
4:35 PM 64.4 °F - 26.6 °F 24% 29.98 in 9.0 mi NW 9.2 mph - N/A   Clear
4:55 PM 64.4 °F - 26.6 °F 24% 29.98 in 9.0 mi WNW 11.5 mph 17.3 mph N/A   Clear
5:15 PM 62.6 °F - 24.8 °F 24% 29.97 in 9.0 mi NW 13.8 mph 19.6 mph N/A   Clear
5:35 PM 59.0 °F - 24.8 °F 27% 29.98 in 10.0 mi NW 13.8 mph - N/A   Clear
5:55 PM 57.2 °F - 26.6 °F 31% 29.98 in 10.0 mi NW 9.2 mph 17.3 mph N/A   Clear
6:15 PM 57.2 °F - 26.6 °F 31% 29.98 in 9.0 mi WNW 9.2 mph - N/A   Clear
6:35 PM 53.6 °F - 26.6 °F 35% 29.98 in 10.0 mi WNW 10.4 mph - N/A   Clear
6:55 PM 55.4 °F - 26.6 °F 33% 29.98 in 10.0 mi West 9.2 mph - N/A   Clear
7:15 PM 53.6 °F - 26.6 °F 35% 29.99 in 10.0 mi West 9.2 mph - N/A   Clear
7:35 PM 55.4 °F - 28.4 °F 36% 29.98 in 10.0 mi WNW 10.4 mph - N/A   Clear
7:55 PM 53.6 °F - 30.2 °F 41% 29.98 in 8.0 mi West 10.4 mph - N/A   Clear
8:15 PM 51.8 °F - 30.2 °F 44% 29.98 in 8.0 mi West 11.5 mph - N/A   Clear
8:35 PM 51.8 °F - 32.0 °F 47% 29.98 in 7.0 mi West 10.4 mph - N/A   Clear
8:55 PM 51.8 °F - 32.0 °F 47% 29.98 in 7.0 mi West 12.7 mph - N/A   Clear
9:15 PM 51.8 °F - 32.0 °F 47% 29.97 in 7.0 mi West 11.5 mph - N/A   Clear
9:35 PM 50.0 °F - 32.0 °F 50% 29.97 in 7.0 mi West 9.2 mph - N/A   Clear
9:55 PM 51.8 °F - 32.0 °F 47% 29.97 in 7.0 mi WNW 8.1 mph 17.3 mph N/A   Clear
10:15 PM 50.0 °F - 32.0 °F 50% 29.97 in 7.0 mi West 11.5 mph - N/A   Clear
10:35 PM 50.0 °F - 32.0 °F 50% 29.97 in 7.0 mi West 12.7 mph - N/A   Clear
10:55 PM 48.2 °F - 32.0 °F 54% 29.98 in 7.0 mi West 10.4 mph - N/A   Clear
11:15 PM 48.2 °F - 30.2 °F 50% 29.97 in 8.0 mi West 11.5 mph - N/A   Clear
11:35 PM 50.0 °F - 30.2 °F 47% 29.97 in 9.0 mi WNW 10.4 mph - N/A   Clear
11:55 PM 48.2 °F - 32.0 °F 54% 29.97 in 8.0 mi West 10.4 mph - N/A   Clear